Regional Weather Roundup
Issued by NWS

Home | Current Version | Previous Version | Graphics & Text | Print | Product List | Glossary On
Versions: 1 2 3 4 5 6 7 8 9 10 11 12 13 14 15 16 17 18 19 20 21 22 23 24 25 26 27 28 29 30 31 32 33 34 35 36 37 38 39 40 41 42 43 44 45 46 47 48 49 50
000
ASUS43 KMKX 171400
RWRWI

WISCONSIN REGIONAL WEATHER ROUNDUP
NATIONAL WEATHER SERVICE MILWAUKEE/SULLIVAN WI
900 AM CDT THU AUG 17 2017

NOTE: "FAIR" INDICATES FEW OR NO CLOUDS BELOW 12,000 FEET WITH NO
SIGNIFICANT WEATHER AND/OR OBSTRUCTIONS TO VISIBILITY.

WIZ001-002-006>008-014>016-023>028-171500-
NORTHWEST WISCONSIN

CITY           SKY/WX    TMP DP  RH WIND       PRES   REMARKS
SUPERIOR ARPT    N/A     61  61 100 NE15G23   29.61F FOG
ASHLAND        CLOUDY    63  62  97 NE10      29.60F
HAYWARD        HVY RAIN  65  63  93 N3        29.58F FOG
SIREN          RAIN      66  65  97 CALM      29.57S
CUMBERLAND     RAIN      64  63  94 E5        29.56F
RICE LAKE      RAIN      66  65  97 E6        29.57F
CHETEK         DRIZZLE   66  66  98 E7        29.56F
LADYSMITH      CLOUDY    66  65  97 SE7       29.60F
EAU CLAIRE     RAIN      66  64  93 SE12      29.51F VSB 1
MENOMONIE      DRIZZLE   66  66  99 E9        29.51S
NEW RICHMOND   CLOUDY    67  67 100 CALM      29.54R
OSCEOLA        CLOUDY    69  69 100 N5        29.58R
$$

WIZ003>005-009-010-017-018-171500-
NORTH CENTRAL WISCONSIN

CITY           SKY/WX    TMP DP  RH WIND       PRES   REMARKS
MANITOWISH WTR RAIN      65  65 100 E5        29.62F
ARBOR VITAE    CLOUDY    67  66  96 SE6       29.62F FOG
WOODRUFF       CLOUDY    67  66  96 SE6       29.62F FOG
RHINELANDER    CLOUDY    67  67 100 SE7       29.63F
EAGLE RIVER    CLOUDY    66  66 100 SE5       29.64F FOG
LAND O LAKES   LGT RAIN  67  67  99 SE6       29.66F
PHILLIPS       CLOUDY    66  66 100 S5        29.60S
TOMAHAWK         N/A     67  66  96 SE3       29.62F FOG
MEDFORD        DRIZZLE   64  63  96 S5        29.61F
MERRILL        CLOUDY    70  66  88 SW7G18    29.62F
$$

WIZ029-030-035-036-043>047-171500-
CENTRAL WISCONSIN

CITY           SKY/WX    TMP DP  RH WIND       PRES   REMARKS
WAUSAU         CLOUDY    68  64  87 S13       29.61S
MOSINEE        CLOUDY    70  66  88 S12       29.63F
MARSHFIELD     CLOUDY    67  63  87 S13       29.61S
STEVENS POINT  MOSUNNY   69  65  85 SW16G23   29.64F
WAUPACA        SUNNY     76  69  78 S10G16    29.65F
WAUTOMA        CLOUDY    71  67  87 S14       29.65F
WISC RAPIDS    CLOUDY    69  65  86 S13       29.65S
CAMP DOUGLAS   NOT AVBL
$$

WIZ011>013-019>022-031-037>040-048>050-171500-
NORTHEAST WISCONSIN

CITY           SKY/WX    TMP DP  RH WIND       PRES   REMARKS
ANTIGO         CLOUDY    68  68 100 S10       29.64F
SHAWANO        CLOUDY    76  71  83 S5        29.64F
OCONTO         PTSUNNY   73  70  90 S7        29.64F
STURGEON BAY   CLOUDY    69  67  93 S14       29.68S
GREEN BAY      PTSUNNY   75  73  93 S10       29.66S
MANITOWOC      CLOUDY    73  72  94 S14       29.69F
APPLETON       PTSUNNY   73  72  94 SW14      29.65F
CLINTONVILLE   MOSUNNY   75  68  78 SW15      29.64F
OSHKOSH        PTSUNNY   74  69  85 S15       29.66F
$$

WIZ032>034-041-042-053>061-171500-
SOUTHWEST WISCONSIN

CITY           SKY/WX    TMP DP  RH WIND       PRES   REMARKS
LA CROSSE      CLOUDY    73  64  73 S13G24    29.59S
SPARTA         CLOUDY    67  64  87 S14       29.62F
VIROQUA        CLOUDY    67  66  96 SW13G20   29.65F
BOSCOBEL       CLOUDY    70  64  81 SW8G16    29.68S
PRAIRIE DU CHI CLOUDY    69  64  82 S10       29.68S
PLATTEVILLE    CLOUDY    68  67  96 SW15G21   29.73S
$$

WIZ056-057-062-063-064-067-068-171500-
SOUTH CENTRAL WISCONSIN

CITY           SKY/WX    TMP DP  RH WIND       PRES   REMARKS
REEDSBURG      CLOUDY    68  67  96 SW10G20   29.67S
BARABOO/DELLS  CLOUDY    69  64  83 SW10G17   29.68S
LONE ROCK      NOT AVBL
MINERAL POINT  CLOUDY    70  68  94 SW10      29.72S
MADISON        PTSUNNY   74  69  85 SW7       29.69S
MIDDLETON      PTSUNNY   75  68  77 SW13G18   29.70S
WATERTOWN      CLOUDY    73  73  99 S12       29.71R
MONROE         CLOUDY    72  68  88 SW15G24   29.73F
JANESVILLE     CLOUDY    73  73 100 SW12G17   29.73S
$$

WIZ051-052-058>065-066-070>072-171500-
SOUTHEAST WISCONSIN

CITY           SKY/WX    TMP DP  RH WIND       PRES   REMARKS
MILWAUKEE      CLOUDY    74  71  91 S14       29.73S
WAUKESHA       CLOUDY    70  68  94 S9        29.73F
MILWAUKEE/TIMM CLOUDY    72  66  83 S12       29.72F
RACINE         PTSUNNY   74  71  91 S8        29.74F
KENOSHA        PTSUNNY   75  70  84 SW12      29.74F
FOND DU LAC    MOSUNNY   76  68  76 S15       29.68S
SHEBOYGAN      CLOUDY    74  73  97 S9        29.70R
WEST BEND      CLOUDY    72  70  94 SW12      29.71R
JUNEAU         PTSUNNY   73  69  90 S10       29.71S
$$

LSZ147-162-171500-
LAKE SUPERIOR

STATION/POSITION TIME  TEMP    WIND        PRES    WAVE
                       AIR SEA DIR/SP/G            HT/PER
                 (UTC) (F)     (DEG/KT/KT) (MB)    (FT/S)
W MID LAKE BUOY  1250   61 60   40/ 19/ 23 1003.6F   4/ 4
DEVILS ISLAND    1300   61      50/ 22/ 24 1003.4R
SAXON HARBOR     1240   64      50/  7/  8 1002.4F
$$

LMZ867-665-643>646-171500-
LAKE MICHIGAN

STATION/POSITION TIME  TEMP    WIND        PRES    WAVE
                       AIR SEA DIR/SP/G            HT/PER
                 (UTC) (F)     (DEG/KT/KT) (MB)    (FT/S)
S GREEN BAY BUOY 1330   72 71  170/ 14/ 16 1004.1R
N MID LAKE BUOY  1250   68 67  150/ 16/ 19 1006.1F   4/ 4
NORTHPORT PIER   1300   69     150/ 12/ 21 1005.4
KEWAUNEE LAKESHO 1318   69     180/ 10/ 12 1004.7
SHEBOYGAN LAKESH 1300   71     180/ 17/ 19 1005.0F
PORT WASHINGTON  1240   73     180/  8/ 11 1006.4F
ATWATER BUOY     1209   72 71  190/ 10/ 12 1007.1
MILWAUKEE LAKESH 1330   72     200/ 14/ 17   N/A
S MID LAKE BUOY  1250   72 71  200/ 17/ 21 1007.9R   3/ 5
KENOSHA   LAKESH 1300   72     190/  7/ 12 1007.5
$$

TC  - TEMPERATURE IN CELSIUS
VSB - VISIBILITY IN STATUTE MILES
WCI - WIND CHILL INDEX
HX  - HEAT INDEX




USA.gov is the U.S. government's official web portal to all federal, state and local government web resources and services.